Location: Newark
(41.6500°N, 71.4833°W)
Time: 13:28:41
(UTC+00:00)

deb Explorer IX - All Passes

Search period start: 24 January 2020 00:00
Search period end: 03 February 2020 00:00
Orbit: 548 x 1101 km, 38.8° (Epoch: 23 January)

Date Brightness Start Highest point End Pass type
(mag) Time Alt. Az. Time Alt. Az. Time Alt. Az.
24 Jan - 01:14:34 10° S 01:19:13 19° SE 01:24:02 10° E visible
24 Jan - 02:58:56 10° SW 03:05:43 47° SSE 03:12:38 10° E night (unlit)
24 Jan - 04:45:40 10° WSW 04:52:57 71° S 04:59:59 10° E night (unlit)
24 Jan - 06:33:07 10° W 06:40:17 61° SSW 06:46:52 10° ESE night (unlit)
24 Jan - 08:21:06 10° W 08:27:02 30° SSW 08:32:25 10° SSE visible
25 Jan - 00:52:11 10° S 00:56:46 19° SE 01:01:34 10° E visible
25 Jan - 02:36:32 10° SW 02:43:15 47° SSE 02:50:12 10° E night (unlit)
25 Jan - 04:23:13 10° WSW 04:30:29 71° S 04:37:37 10° E night (unlit)
25 Jan - 06:10:38 10° W 06:17:50 61° SSW 06:24:33 10° ESE night (unlit)
25 Jan - 07:58:35 10° W 08:04:37 30° SSW 08:10:08 10° SSE visible
26 Jan - 00:29:49 10° S 00:34:20 19° SE 00:39:05 10° E visible
26 Jan - 02:14:09 10° SW 02:20:47 48° SSE 02:27:44 10° E visible
26 Jan - 04:00:48 10° WSW 04:08:00 71° S 04:15:12 10° E night (unlit)
26 Jan - 05:48:10 10° W 05:55:22 61° SSW 06:02:12 10° ESE night (unlit)
26 Jan - 07:36:05 10° W 07:42:11 30° SSW 07:47:49 10° SSE night (unlit)
27 Jan - 00:07:29 10° S 00:11:54 19° SE 00:16:35 10° E visible
27 Jan - 01:51:47 10° SW 01:58:18 48° SSE 02:05:16 10° E visible
27 Jan - 03:38:23 10° WSW 03:45:31 71° S 03:52:47 10° E night (unlit)
27 Jan - 05:25:42 10° W 05:32:53 61° SSW 05:39:49 10° ESE night (unlit)
27 Jan - 07:13:35 10° W 07:19:43 30° SSW 07:25:27 10° SSE night (unlit)
27 Jan - 23:45:09 10° S 23:49:27 19° SE 23:54:03 10° E visible
28 Jan - 01:29:25 10° SW 01:35:50 48° SSE 01:42:45 10° E visible
28 Jan - 03:15:59 10° WSW 03:23:02 71° S 03:30:19 10° E night (unlit)
28 Jan - 05:03:14 10° W 05:10:24 61° SSW 05:17:25 10° ESE night (unlit)
28 Jan - 06:51:05 10° W 06:57:15 30° SSW 07:03:06 10° SSE night (unlit)
28 Jan - 23:22:51 10° S 23:27:01 19° SE 23:31:30 10° E visible
29 Jan - 01:07:05 10° SW 01:13:22 48° SSE 01:20:15 10° E visible
29 Jan - 02:53:35 10° WSW 03:00:32 71° S 03:07:50 10° E visible
29 Jan - 04:40:47 10° W 04:47:54 60° SSW 04:54:59 10° ESE night (unlit)
29 Jan - 06:28:35 10° W 06:34:46 30° SSW 06:40:41 10° SSE night (unlit)
29 Jan - 23:00:33 10° S 23:04:35 18° SE 23:08:57 10° E visible
30 Jan - 00:44:45 10° SW 00:50:54 48° SSE 00:57:42 10° E visible
30 Jan - 02:31:13 10° WSW 02:38:02 71° S 02:45:20 10° E visible
30 Jan - 04:18:21 10° W 04:25:23 60° SSW 04:32:32 10° ESE night (unlit)
30 Jan - 06:06:07 10° W 06:12:16 30° SSW 06:18:16 10° SSE night (unlit)
30 Jan - 22:38:16 10° S 22:42:10 18° SE 22:46:22 10° E visible
31 Jan - 00:22:26 10° SW 00:28:26 48° SSE 00:35:09 10° E visible
31 Jan - 02:08:51 10° W 02:15:32 71° S 02:22:49 10° E visible
31 Jan - 03:55:56 10° W 04:02:53 59° SSW 04:10:02 10° ESE night (unlit)
31 Jan - 05:43:38 10° W 05:49:46 30° SSW 05:55:48 10° SSE night (unlit)
31 Jan - 22:16:01 10° S 22:19:44 18° SE 22:23:48 10° ESE daylight
01 Feb - 00:00:08 10° SW 00:05:58 47° SSE 00:12:35 10° E visible
01 Feb - 01:46:30 10° W 01:53:03 71° S 02:00:16 10° E visible
01 Feb - 03:33:31 10° W 03:40:22 59° SSW 03:47:32 10° ESE night (unlit)
01 Feb - 05:21:11 10° W 05:27:15 29° SSW 05:33:19 10° SSE night (unlit)
01 Feb - 21:53:45 10° S 21:57:20 17° SE 22:01:12 10° ESE daylight
01 Feb - 23:37:50 10° SW 23:43:31 47° SSE 23:50:00 10° E visible
02 Feb - 01:24:10 10° W 01:30:33 70° S 01:37:43 10° E visible
02 Feb - 03:11:07 10° W 03:17:51 58° SSW 03:25:00 10° ESE visible
02 Feb - 04:58:44 10° W 05:04:44 29° SSW 05:10:47 10° SSE night (unlit)
02 Feb - 21:31:30 10° S 21:34:55 17° SE 21:38:37 10° ESE daylight
02 Feb - 23:15:34 10° SW 23:21:04 47° SSE 23:27:25 10° E visible
